sat.trackr.live / text

‹ back to catalog

STARLINK-36341

NORAD 67918 · 2026-036Q

PAYLOAD ACTIVE UNKNOWN

§ Identity

Operator
Country
US
Launch date
2026-02-22
Launch site
AFETR
Launch vehicle
Mass (kg)
RCS (m²)

Purposes: comms

External: N2YO · Heavens-Above · Gunter

§ Orbital elements

Epoch: 2026-09-19T22:18:19.867104Z

Period
94.27 min
Inclination
42.9965°
Eccentricity
0.0001136
Mean motion
15.27588621 rev/d
Perigee alt
482.2 km
Apogee alt
483.8 km
Semi-major
6,861.2 km
B*
5.9506e-4
RAAN
228.7362°
Arg perigee
266.1194°
Mean anomaly
93.9528°
Rev number
3,342

§ Raw data

STARLINK-363411 67918U 26036Q   26262.92939661  .00016153  00000+0  59506-3 0  99942 67918  42.9965 228.7362 0001136 266.1194  93.9528 15.27588621 33421

JSON: /api/v1/satellites/67918 · /tle

For live sub-satellite position, see the globe view (requires WebGL).

§ Visibility from observer

Set your observer location to see the next 7 days of passes ≥ 10°. The values pass through the URL so the page stays shareable.

No JS? Fill the form by hand. The geolocation button needs JavaScript.